Location: Nicosia
(35.1670°N, 33.3670°E)
Time: 09:51:22
(UTC+03:00)

N. Korean satellite - Visible Passes

Search period start: 26 September 2022 00:00
Search period end: 06 October 2022 00:00
Orbit: 427 x 468 km, 97.3° (Epoch: 25 September)

Date Brightness Start Highest point End Pass type
(mag) Time Alt. Az. Time Alt. Az. Time Alt. Az.
27 Sep 7.9 05:38:21 10° NNE 05:41:26 38° E 05:44:30 10° S visible
28 Sep 9.8 05:04:21 10° ENE 05:05:39 12° E 05:06:55 10° ESE visible
29 Sep 6.3 05:59:32 10° NNE 06:02:48 89° E 06:06:03 10° SSW visible
30 Sep 8.9 05:24:21 10° NE 05:27:03 23° E 05:29:43 10° SSE visible
02 Oct 7.3 05:45:05 10° NNE 05:48:16 49° E 05:51:27 10° S visible
03 Oct 9.6 05:10:26 10° ENE 05:12:21 15° E 05:14:16 10° SE visible
04 Oct 6.2 06:06:02 10° N 06:09:18 72° WNW 06:12:33 10° SSW visible
05 Oct 8.5 05:30:31 10° NE 05:33:25 29° E 05:36:19 10° SSE visible
